Tri Cities Regional Tn Va Airport
KTRI : now visible

Airfield :











YOU CAN JOIN US ON...

 
LOGIN :

Register | Disclaimer

   EN    FR    IT 

 









Legend :    VFR   Marginal VFR   IFR   Intensive IFR   Very Intensive IFR
Visi :
Ceiling :
>= 8 km
>= 3000ft
5 to 8 km
1000 to 3000 ft
1500m to 5 km
500 to 1000 ft
800 to 1500m
200 to 500 ft
< 800m
< 200 ft
Symbols :   Thunderstorms  Fog  Heavy snow  Heavy precipitations  Wind > 20 kt






- Airport Elevation : 1519 ft
- IATA code : TRI


KTRI - Tri Cities Regional Tn Va

CURRENT METAR :
  • 130953Z 00000KT 6SM BR FEW050 17/16 A2991 RMK AO2 SLP103 T01720161

EXPIRED METARs :
  • 130853Z 00000KT 9SM FEW050 18/17 A2990 RMK AO2 SLP099 T01780167 55005
  • 130753Z 00000KT 10SM SCT050 18/17 A2989 RMK AO2 SLP096 T01830172

TAF KTRI
Valid from the 13 at 06:00 until the 14 at 06:00 UTC


130529Z 1306/1406 VRB04KT P6SM VCSH FEW050 BKN120
FM131000 00000KT 3SM BR FEW003 SCT050
FM131500 33004KT P6SM SCT050
FM140200 00000KT P6SM FEW250
KZTL FIR / North America



MET'MAP, your aeronautical weather chart ! - Copyright ORBIFLY December 2007 - Disclaimer

ORBIFLY MET'MAP TEAM :

Programming & Development : Alexandra Zaïnal
Concept & original design : Baudouin d'Aumeries
Assistance for programming : Marc-Olivier Méhu
Technical & hardware support : Manuel Goepfert

Contact : metmap@orbifly.com




SOURCES & CREDITS :

   NOAA       Earth
Advisory